FHKAF LFKJ-LFKF

Flight info

Callsign FHKAF
Flight time 0h 40m
Altitude 4500
Route DCT
Aircraft DA42/L-SBDGRY/S

Departure

Time 2026-05-03 22:19
Airport Ajaccio Napoléon Bonaparte airport (LFKJ)

Arrival

Time 2026-05-03 23:00
Airport Figari Sud-Corse Airport (LFKF)
Time Latitude Longitude Altitude Speed Heading
2026-05-03 21:57 41.92200 8.79405 16 ft 0 kts 275°
2026-05-03 22:15 41.92198 8.79389 16 ft 5 kts 212°
2026-05-03 22:16 41.92191 8.79443 16 ft 10 kts 52°
2026-05-03 22:16 41.92247 8.79513 16 ft 11 kts 24°
2026-05-03 22:16 41.92312 8.79550 16 ft 11 kts 78°
2026-05-03 22:16 41.92306 8.79663 16 ft 13 kts 92°
2026-05-03 22:17 41.92297 8.79796 16 ft 15 kts 94°
2026-05-03 22:17 41.92335 8.79878 16 ft 13 kts 25°
2026-05-03 22:17 41.92402 8.79923 16 ft 9 kts 54°
2026-05-03 22:17 41.92405 8.80020 16 ft 12 kts 94°
2026-05-03 22:18 41.92398 8.80144 17 ft 14 kts 95°
2026-05-03 22:18 41.92366 8.80228 18 ft 3 kts 205°
2026-05-03 22:18 41.92247 8.80158 17 ft 51 kts 205°
2026-05-03 22:18 41.91764 8.79855 34 ft 95 kts 205°
2026-05-03 22:19 41.91144 8.79462 246 ft 100 kts 205°
2026-05-03 22:19 41.90530 8.79042 567 ft 100 kts 206°
2026-05-03 22:19 41.89905 8.78645 865 ft 101 kts 205°
2026-05-03 22:19 41.89268 8.78193 1134 ft 105 kts 207°
2026-05-03 22:20 41.88626 8.77722 1391 ft 105 kts 208°
2026-05-03 22:20 41.87983 8.77255 1644 ft 105 kts 208°
2026-05-03 22:20 41.87337 8.76794 1884 ft 105 kts 208°
2026-05-03 22:20 41.86670 8.76320 2022 ft 117 kts 208°
2026-05-03 22:21 41.85907 8.75765 2029 ft 132 kts 207°
2026-05-03 22:21 41.85081 8.75136 2035 ft 141 kts 208°
2026-05-03 22:21 41.84209 8.74473 2036 ft 146 kts 208°
2026-05-03 22:21 41.83313 8.73799 2036 ft 149 kts 208°
2026-05-03 22:22 41.82409 8.73119 2035 ft 150 kts 208°
2026-05-03 22:22 41.81521 8.72449 2184 ft 140 kts 207°
2026-05-03 22:22 41.80708 8.71827 2429 ft 129 kts 208°
2026-05-03 22:22 41.79954 8.71243 2692 ft 123 kts 208°
2026-05-03 22:23 41.79152 8.70841 2922 ft 124 kts 190°
2026-05-03 22:23 41.78297 8.70630 3013 ft 129 kts 189°
2026-05-03 22:23 41.77385 8.70417 3016 ft 136 kts 188°
2026-05-03 22:23 41.76434 8.70194 3016 ft 140 kts 189°
2026-05-03 22:24 41.75482 8.70035 3012 ft 137 kts 173°
2026-05-03 22:24 41.74689 8.70653 3018 ft 136 kts 128°
2026-05-03 22:24 41.74167 8.71743 3013 ft 141 kts 123°
2026-05-03 22:24 41.73650 8.72853 3016 ft 140 kts 123°
2026-05-03 22:25 41.73122 8.73954 3013 ft 141 kts 123°
2026-05-03 22:25 41.72597 8.75050 3009 ft 138 kts 123°
2026-05-03 22:25 41.72080 8.76131 3008 ft 137 kts 123°
2026-05-03 22:25 41.71566 8.77208 2970 ft 139 kts 123°
2026-05-03 22:26 41.71041 8.78306 2832 ft 142 kts 122°
2026-05-03 22:26 41.70503 8.79420 2687 ft 143 kts 124°
2026-05-03 22:26 41.69707 8.80169 2524 ft 144 kts 167°
2026-05-03 22:26 41.68713 8.80204 2375 ft 140 kts 180°
2026-05-03 22:27 41.67769 8.80157 2222 ft 132 kts 181°
2026-05-03 22:27 41.66867 8.80153 2064 ft 127 kts 166°
2026-05-03 22:27 41.66180 8.80810 1907 ft 124 kts 118°
2026-05-03 22:27 41.66022 8.81897 1726 ft 121 kts 90°
2026-05-03 22:28 41.66059 8.83012 1570 ft 116 kts 87°
2026-05-03 22:28 41.66105 8.84046 1362 ft 110 kts 86°
2026-05-03 22:28 41.66138 8.85050 1154 ft 106 kts 88°
2026-05-03 22:28 41.66168 8.86024 781 ft 105 kts 87°
2026-05-03 22:29 41.66188 8.86955 378 ft 94 kts 88°
2026-05-03 22:29 41.66148 8.87747 122 ft 77 kts 93°
2026-05-03 22:29 41.66104 8.88414 34 ft 69 kts 93°
2026-05-03 22:29 41.66055 8.89063 41 ft 76 kts 93°
2026-05-03 22:30 41.66003 8.89824 241 ft 82 kts 94°
2026-05-03 22:30 41.65955 8.90598 561 ft 81 kts 79°
2026-05-03 22:30 41.66336 8.91124 887 ft 85 kts 19°
2026-05-03 22:30 41.66938 8.90967 1084 ft 104 kts 322°
2026-05-03 22:31 41.67306 8.90063 1233 ft 122 kts 278°
2026-05-03 22:31 41.67315 8.88854 1260 ft 140 kts 261°
2026-05-03 22:31 41.66757 8.87830 1333 ft 144 kts 218°
2026-05-03 22:31 41.66077 8.86851 1312 ft 144 kts 241°
2026-05-03 22:32 41.65733 8.85648 1425 ft 136 kts 249°
2026-05-03 22:32 41.65372 8.84489 1465 ft 135 kts 243°
2026-05-03 22:32 41.64927 8.83366 1429 ft 139 kts 240°
2026-05-03 22:32 41.64433 8.82219 1349 ft 145 kts 236°
2026-05-03 22:33 41.63907 8.81053 1292 ft 147 kts 234°
2026-05-03 22:33 41.63328 8.79961 1417 ft 137 kts 230°
2026-05-03 22:33 41.62768 8.78979 1543 ft 129 kts 229°
2026-05-03 22:33 41.62210 8.78048 1552 ft 128 kts 226°
2026-05-03 22:34 41.61631 8.77158 1556 ft 128 kts 234°
2026-05-03 22:34 41.61459 8.76014 1560 ft 127 kts 282°
2026-05-03 22:34 41.61797 8.75001 1676 ft 115 kts 300°
2026-05-03 22:34 41.62335 8.74258 1649 ft 115 kts 351°
2026-05-03 22:35 41.63055 8.74490 1707 ft 104 kts 44°
2026-05-03 22:35 41.63310 8.75313 1799 ft 96 kts 91°
2026-05-03 22:35 41.63302 8.76193 1855 ft 96 kts 102°
2026-05-03 22:35 41.62752 8.76602 1918 ft 103 kts 173°
2026-05-03 22:36 41.61991 8.76514 1954 ft 115 kts 181°
2026-05-03 22:36 41.61261 8.76411 1980 ft 100 kts 181°
2026-05-03 22:36 41.60623 8.76293 2006 ft 88 kts 184°
2026-05-03 22:36 41.60029 8.76157 1989 ft 88 kts 185°
2026-05-03 22:37 41.59430 8.76016 1984 ft 87 kts 185°
2026-05-03 22:37 41.58880 8.75878 2043 ft 74 kts 185°
2026-05-03 22:37 41.58381 8.75729 2049 ft 71 kts 185°
2026-05-03 22:37 41.57909 8.75560 2001 ft 71 kts 185°
2026-05-03 22:38 41.57338 8.75520 1891 ft 103 kts 154°
2026-05-03 22:38 41.56709 8.75968 2243 ft 89 kts 159°
2026-05-03 22:38 41.56420 8.76444 2545 ft 97 kts 105°
2026-05-03 22:38 41.56231 8.77376 2852 ft 48 kts 109°
2026-05-03 22:39 41.56115 8.77515 2413 ft 124 kts 144°
2026-05-03 22:39 41.55698 8.78626 2369 ft 140 kts 110°
2026-05-03 22:39 41.55334 8.79825 2555 ft 133 kts 117°
2026-05-03 22:39 41.54907 8.80557 2778 ft 82 kts 158°
2026-05-03 22:40 41.54451 8.80341 2612 ft 75 kts 247°
2026-05-03 22:40 41.54734 8.79804 2291 ft 88 kts 332°
2026-05-03 22:40 41.55336 8.79728 2308 ft 102 kts 40°
2026-05-03 22:40 41.55445 8.80526 2388 ft 107 kts 128°
2026-05-03 22:41 41.54887 8.81224 2521 ft 112 kts 135°
2026-05-03 22:41 41.54489 8.82154 2609 ft 118 kts 117°
2026-05-03 22:41 41.54130 8.83130 2777 ft 117 kts 118°
2026-05-03 22:41 41.53734 8.84112 2861 ft 120 kts 123°
2026-05-03 22:42 41.53253 8.84956 3082 ft 116 kts 130°
2026-05-03 22:42 41.52718 8.85878 2969 ft 138 kts 129°
2026-05-03 22:42 41.52136 8.86911 3035 ft 140 kts 127°
2026-05-03 22:42 41.51574 8.87997 3035 ft 144 kts 124°
2026-05-03 22:43 41.51054 8.89154 3048 ft 146 kts 120°
2026-05-03 22:43 41.50741 8.89949 3102 ft 146 kts 118°
2026-05-03 22:43 41.50276 8.91159 3118 ft 147 kts 118°
2026-05-03 22:43 41.49815 8.92375 3137 ft 147 kts 118°
2026-05-03 22:44 41.49355 8.93594 3163 ft 147 kts 118°
2026-05-03 22:44 41.48969 8.94860 3234 ft 150 kts 99°
2026-05-03 22:44 41.49222 8.96199 3238 ft 154 kts 60°
2026-05-03 22:44 41.49833 8.97357 3337 ft 150 kts 56°
2026-05-03 22:45 41.50428 8.98461 3504 ft 144 kts 56°
2026-05-03 22:45 41.50998 8.99522 3677 ft 139 kts 56°
2026-05-03 22:45 41.51561 9.00552 3848 ft 136 kts 56°
2026-05-03 22:45 41.52075 9.01616 4014 ft 136 kts 71°
2026-05-03 22:46 41.52068 9.02816 4197 ft 130 kts 109°
2026-05-03 22:46 41.51757 9.03936 4369 ft 127 kts 114°
2026-05-03 22:46 41.51432 9.05039 4549 ft 129 kts 113°
2026-05-03 22:46 41.51088 9.06159 4732 ft 132 kts 114°
2026-05-03 22:47 41.50635 9.07200 4906 ft 129 kts 141°
2026-05-03 22:47 41.49801 9.07513 5077 ft 128 kts 187°
2026-05-03 22:47 41.49057 9.06915 5259 ft 130 kts 225°
2026-05-03 22:47 41.48707 9.05799 5434 ft 134 kts 266°
2026-05-03 22:48 41.48892 9.04569 5616 ft 139 kts 289°
2026-05-03 22:48 41.49360 9.03439 5794 ft 141 kts 302°
2026-05-03 22:48 41.49938 9.02378 5965 ft 142 kts 304°
2026-05-03 22:48 41.50499 9.01321 6139 ft 141 kts 292°
2026-05-03 22:49 41.50698 9.00058 6322 ft 137 kts 267°
2026-05-03 22:49 41.50763 8.98786 6498 ft 138 kts 269°
2026-05-03 22:49 41.50825 8.97539 6672 ft 134 kts 269°
2026-05-03 22:49 41.50891 8.96306 6740 ft 133 kts 269°
2026-05-03 22:50 41.50947 8.95054 6645 ft 140 kts 263°
2026-05-03 22:50 41.50524 8.93914 6450 ft 142 kts 220°
2026-05-03 22:50 41.49688 8.93194 6249 ft 146 kts 194°
2026-05-03 22:50 41.48710 8.93367 6045 ft 144 kts 151°
2026-05-03 22:51 41.48128 8.94410 5837 ft 145 kts 108°
2026-05-03 22:51 41.48139 8.95750 5639 ft 145 kts 88°
2026-05-03 22:51 41.48253 8.97072 5428 ft 142 kts 87°
2026-05-03 22:51 41.48368 8.98376 5241 ft 142 kts 86°
2026-05-03 22:52 41.48587 8.99661 5051 ft 143 kts 77°
2026-05-03 22:52 41.48877 9.00933 4798 ft 143 kts 75°
2026-05-03 22:52 41.49175 9.02205 4549 ft 145 kts 75°
2026-05-03 22:52 41.49471 9.03504 4303 ft 147 kts 76°
2026-05-03 22:53 41.49760 9.04816 4049 ft 145 kts 76°
2026-05-03 22:53 41.50030 9.06071 3804 ft 134 kts 76°
2026-05-03 22:53 41.50285 9.07220 3557 ft 126 kts 76°
2026-05-03 22:53 41.50535 9.08316 3303 ft 121 kts 76°
2026-05-03 22:54 41.50779 9.09378 3058 ft 117 kts 75°
2026-05-03 22:54 41.50743 9.10410 2802 ft 114 kts 114°
2026-05-03 22:54 41.50138 9.11084 2544 ft 119 kts 158°
2026-05-03 22:54 41.49344 9.11354 2292 ft 118 kts 165°
2026-05-03 22:55 41.48533 9.11201 2031 ft 124 kts 205°
2026-05-03 22:55 41.47940 9.10359 1773 ft 126 kts 232°
2026-05-03 22:55 41.47450 9.09393 1509 ft 125 kts 233°
2026-05-03 22:55 41.46868 9.08598 1267 ft 117 kts 201°
2026-05-03 22:56 41.46145 9.08556 1102 ft 97 kts 151°
2026-05-03 22:56 41.45713 9.09204 1094 ft 98 kts 104°
2026-05-03 22:56 41.45811 9.10082 1099 ft 101 kts 59°
2026-05-03 22:56 41.46372 9.10563 1094 ft 94 kts 15°
2026-05-03 22:57 41.47001 9.10328 1101 ft 103 kts 327°
2026-05-03 22:57 41.47387 9.09459 1108 ft 119 kts 283°
2026-05-03 22:57 41.47247 9.08379 1103 ft 119 kts 237°
2026-05-03 22:57 41.46809 9.07461 1107 ft 116 kts 233°
2026-05-03 22:58 41.46519 9.06443 1095 ft 123 kts 266°
2026-05-03 22:58 41.46800 9.05386 1084 ft 123 kts 311°
2026-05-03 22:58 41.47531 9.04934 981 ft 117 kts
2026-05-03 22:58 41.48123 9.05426 864 ft 98 kts 70°
2026-05-03 22:59 41.48278 9.06305 654 ft 97 kts 74°
2026-05-03 22:59 41.48570 9.07116 454 ft 97 kts 61°
2026-05-03 22:59 41.48951 9.07844 279 ft 94 kts 52°
2026-05-03 22:59 41.49373 9.08451 128 ft 84 kts 49°
2026-05-03 23:00 41.49730 9.08972 57 ft 62 kts 50°
2026-05-03 23:00 41.49955 9.09304 70 ft 38 kts 47°
2026-05-03 23:00 41.50106 9.09521 69 ft 27 kts 47°
2026-05-03 23:00 41.50196 9.09682 60 ft 13 kts 96°
2026-05-03 23:01 41.50134 9.09769 66 ft 14 kts 135°
2026-05-03 23:01 41.50105 9.09866 66 ft 10 kts 51°
2026-05-03 23:01 41.50152 9.09935 66 ft 8 kts 72°
2026-05-03 23:01 41.50125 9.09985 61 ft 4 kts 108°
2026-05-03 23:02 41.50121 9.09999 66 ft 3 kts 132°
2026-05-03 23:02 41.50123 9.10026 63 ft 0 kts 45°
2026-05-03 23:02 41.50124 9.10028 62 ft 0 kts 48°